Lapse_Rate
6.1 6.1 6.1 6.2 6.2 6.3 6.1 6.2 6.3 6.3 6.4 6.3 6.2 6.2 6.1 6.0 5.9 5.8 5.8 5.9 5.7 5.8 5.6 5.6 5.7 5.4 5.2 5.1 5.0 4.6 4.3 4.9 4.9 4.7 4.6 4.6 4.4 4.7 4.5 4.4 5.0 5.4 5.0 5.4 4.8
5.9 5.7 6.0 5.8 5.9 6.0 6.1 5.9 5.9 5.9 6.0 5.9 6.0 6.0 5.9 5.8 5.8 5.8 5.7 5.6 5.6 5.4 5.3 5.2 5.2 5.1 4.9 4.9 4.6 4.4 4.8 4.8 4.8 4.6 4.4 4.6 4.7 5.2 4.9 4.6 4.8 5.4 5.3 5.4 4.8
5.6 5.3 5.5 5.6 5.3 5.7 5.6 5.8 5.8 5.6 5.6 5.6 5.5 5.4 5.5 5.5 5.4 5.6 5.5 5.3 5.2 5.1 5.1 5.1 5.0 5.0 4.9 4.8 4.6 4.9 5.0 4.5 5.0 4.5 4.2 4.9 5.2 4.3 4.8 5.4 5.3 5.3 5.5 5.3 5.3
5.2 5.1 5.0 5.0 4.9 5.1 5.1 4.9 4.9 5.0 5.2 5.4 5.4 5.2 5.1 5.1 5.1 5.0 5.1 5.0 5.0 4.9 4.9 5.0 4.8 4.8 4.9 4.5 4.5 4.7 5.0 4.6 5.5 4.9 4.7 4.6 4.3 4.9 4.9 5.5 5.9 5.7 5.6 5.3 5.2
4.9 4.6 4.8 4.9 4.7 4.8 4.7 4.8 4.7 4.7 4.9 5.0 5.0 5.1 5.2 5.2 5.3 5.2 5.1 5.0 5.0 4.9 5.0 5.1 5.1 5.1 5.2 5.1 4.9 5.0 5.3 5.2 4.9 5.1 4.6 4.0 4.4 4.1 5.3 5.9 4.8 4.9 5.4 5.4 5.9
4.5 4.4 4.7 4.5 4.5 4.7 4.9 4.9 4.7 4.4 4.5 4.5 4.6 4.9 5.0 4.7 5.2 4.9 4.8 4.8 4.9 4.8 5.0 5.1 5.2 5.3 5.4 5.6 5.5 5.7 5.6 6.2 6.2 5.7 5.0 4.8 5.2 3.7 7.6 5.3 4.8 4.2 4.3 5.4 5.4
4.6 4.7 4.9 4.8 4.7 4.8 5.0 5.0 4.9 4.9 4.6 4.4 4.4 4.6 4.8 4.8 5.1 4.9 4.6 4.6 4.7 4.8 4.7 4.9 5.0 5.1 5.4 5.7 5.9 5.9 5.9 6.2 6.8 6.0 5.0 3.9 5.5 6.4 5.9 4.3 4.1 4.0 3.9 3.8 5.0
4.2 4.2 4.0 4.2 4.6 4.9 5.1 5.0 4.9 4.7 4.5 4.2 4.4 4.7 4.6 4.5 4.8 4.5 4.7 4.3 4.5 4.5 4.7 4.8 5.1 5.2 5.3 5.3 5.8 5.5 4.7 4.9 6.3 6.3 5.0 3.9 6.5 6.0 5.9 5.5 5.9 6.0 5.4 4.7 3.5
4.1 3.7 3.8 3.9 3.7 4.1 4.6 4.9 5.0 4.8 4.6 4.4 4.5 4.4 4.5 4.3 4.3 4.3 4.3 4.5 4.5 4.5 4.6 4.8 4.9 5.2 5.2 4.7 5.1 4.8 4.5 5.4 5.7 6.5 5.1 4.5 6.2 7.0 6.3 5.8 6.4 6.6 6.5 6.1 6.0
3.1 3.6 4.1 4.4 4.4 4.3 4.6 4.8 4.9 5.2 5.1 4.9 4.8 4.7 4.6 4.2 4.3 4.4 4.2 4.2 4.4 4.5 4.6 4.8 5.0 5.5 5.7 4.9 4.7 4.8 4.2 5.0 5.2 6.8 5.0 4.0 5.7 6.4 6.0 6.1 6.3 6.5 6.9 6.9 6.6
4.0 3.9 3.9 4.0 4.3 5.0 5.0 5.3 5.1 5.3 5.3 4.8 5.1 4.9 4.9 4.9 4.3 4.3 4.4 4.5 4.4 4.5 4.6 4.7 5.0 6.3 4.9 4.6 4.7 4.8 4.4 4.4 6.9 6.5 4.5 5.0 5.7 6.8 7.4 6.3 6.6 7.0 6.7 6.8 7.0
4.3 4.3 4.4 4.6 4.5 4.4 4.6 4.9 5.0 5.2 6.0 5.2 5.2 5.2 5.1 4.9 4.7 4.5 4.3 4.5 4.7 4.7 4.6 4.5 5.8 5.0 5.1 4.9 4.5 4.8 4.5 5.7 5.6 6.1 4.8 5.0 6.1 6.0 7.8 7.2 6.5 6.0 6.4 6.5 6.7
4.1 4.2 4.6 4.8 4.8 4.5 4.3 4.3 4.5 4.4 4.8 5.8 5.2 5.0 5.2 5.1 4.9 4.8 4.8 4.7 4.9 4.9 4.5 4.3 5.8 4.9 4.5 5.4 3.9 5.2 4.9 5.7 5.1 5.5 4.7 5.2 5.6 6.1 7.7 6.8 6.7 6.4 6.5 5.7 5.8
3.6 3.7 4.3 4.3 4.1 4.5 4.7 4.4 4.3 4.1 4.3 4.8 4.9 5.1 5.0 5.1 5.4 5.2 5.0 4.9 5.0 4.7 4.4 4.5 5.4 5.0 5.0 5.3 4.4 3.8 6.5 5.5 5.2 4.6 4.6 5.1 4.4 6.4 6.3 6.1 6.6 6.1 5.9 5.8 7.4
3.9 3.8 3.9 3.9 3.8 3.8 4.0 3.8 3.7 3.8 2.8 4.7 4.9 5.0 5.2 5.3 5.3 5.6 5.2 5.1 5.0 4.7 4.2 5.4 5.3 4.8 5.1 6.3 5.4 5.5 5.4 5.5 5.5 4.9 4.6 5.3 5.3 5.6 6.3 6.0 6.1 5.7 5.8 6.9 8.4
4.1 3.5 4.0 3.9 4.1 3.9 3.8 3.5 3.5 3.8 3.3 4.9 5.1 5.2 5.3 5.3 5.4 5.3 5.2 4.9 5.0 4.6 4.8 5.6 5.3 5.3 5.7 5.8 5.6 5.5 5.2 5.2 6.0 5.2 5.0 5.7 5.8 5.8 6.4 6.4 5.4 5.7 6.2 6.8 7.5
4.1 3.7 3.9 4.0 4.1 4.0 4.0 3.7 3.6 4.0 4.8 4.8 5.1 5.3 5.3 5.5 5.2 5.1 5.1 5.3 5.2 4.5 4.6 5.1 5.8 5.9 5.7 5.7 5.8 5.6 5.2 4.9 4.3 3.8 5.2 6.5 5.9 6.4 6.7 6.7 6.5 5.9 6.1 6.4 6.8
4.3 4.1 3.9 4.2 4.3 4.7 4.4 4.5 4.4 5.0 5.5 5.3 5.3 5.5 5.4 5.5 5.2 5.3 5.2 5.6 6.1 5.5 4.8 4.9 5.4 6.0 6.0 5.8 5.2 5.6 5.4 5.6 5.5 5.5 5.4 6.3 5.5 7.1 6.1 6.9 6.7 5.7 6.3 5.3 5.9
5.1 5.1 4.6 4.5 4.7 4.7 4.8 5.1 5.6 5.8 5.6 5.5 5.9 5.5 5.4 5.6 5.4 5.2 5.3 5.6 5.6 5.7 5.7 5.3 5.2 6.2 6.4 6.0 5.8 5.5 5.8 6.2 5.8 5.8 5.2 6.0 6.8 6.3 5.9 7.0 6.3 5.4 6.2 6.2 6.2
4.9 4.7 4.5 4.8 4.7 4.6 4.8 5.1 5.7 5.7 5.6 5.5 5.4 5.8 5.7 5.5 5.4 5.5 5.4 5.8 5.7 5.9 5.8 5.6 5.2 5.4 6.0 6.4 6.4 5.5 5.6 6.0 6.5 6.2 5.5 5.6 6.2 5.4 5.5 6.0 5.9 5.1 5.2 6.4 6.4
4.8 4.6 4.4 4.2 4.5 4.5 4.6 5.2 5.6 6.1 5.8 5.5 5.6 5.7 6.0 5.6 5.6 5.4 5.6 5.8 5.6 5.6 5.7 5.8 5.3 5.3 5.6 6.2 5.6 6.2 5.6 5.5 5.5 5.9 6.0 5.4 5.6 5.9 5.9 5.9 5.8 5.4 5.3 6.3 6.1
5.5 5.1 4.7 4.6 4.0 4.1 4.7 5.3 5.7 6.6 6.4 6.0 5.8 5.7 6.0 6.0 5.6 5.6 5.8 5.6 5.6 5.6 5.5 5.5 5.2 4.9 5.4 6.2 5.6 5.7 5.6 5.1 4.9 4.9 4.8 4.7 5.1 6.2 6.6 6.0 5.8 5.4 4.8 5.8 6.4
5.5 5.5 5.0 4.5 4.1 4.4 4.9 5.7 6.0 6.5 6.4 6.3 6.2 6.2 5.9 6.0 6.0 6.1 6.0 5.9 5.5 5.5 5.3 5.5 5.2 5.1 5.3 6.1 5.8 5.5 5.7 5.5 5.0 4.6 4.6 5.0 5.2 6.5 6.3 6.0 5.7 5.9 5.0 4.9 5.2
5.2 5.2 4.7 5.0 4.8 4.9 5.2 5.7 6.1 6.5 6.5 6.3 6.3 6.5 6.3 6.2 6.4 6.3 6.2 5.9 5.7 5.5 5.4 5.2 5.2 5.7 5.4 5.6 5.0 4.6 5.4 6.6 5.1 4.3 4.6 4.5 4.1 5.4 5.5 5.2 5.5 6.1 5.8 5.0 4.7
5.0 4.7 4.9 5.2 5.1 5.3 5.0 5.7 6.4 6.6 6.4 6.3 6.6 6.4 6.1 6.3 6.6 6.4 6.2 6.0 6.0 6.1 6.1 5.5 5.3 5.6 5.7 5.7 5.3 4.8 4.9 5.5 5.8 5.2 4.2 4.4 5.0 4.5 4.9 4.5 4.8 5.2 6.1 5.5 5.1
4.8 4.7 4.7 5.2 5.2 5.2 5.3 6.2 6.1 6.0 5.6 6.2 6.2 6.2 5.9 6.3 6.6 6.2 6.1 6.1 5.8 6.1 6.2 5.8 5.5 6.0 5.8 6.1 5.6 5.0 6.0 5.5 5.5 5.2 5.1 5.0 4.9 4.9 5.2 4.6 4.9 5.3 5.7 5.9 5.4
4.8 4.8 4.5 4.9 5.0 5.1 5.5 5.4 5.7 5.5 5.8 5.9 5.7 5.7 6.3 6.5 6.1 6.0 6.2 6.3 6.3 6.2 6.2 5.8 6.0 6.0 5.4 6.2 5.8 5.9 6.3 6.2 6.1 6.1 5.8 5.4 4.8 4.8 5.0 4.6 4.6 5.4 5.5 6.0 5.7
Wind_Speed
11 11 10 8 9 8 7 6 6 6 7 8 8 10 12 13 15 3 2 2 4 1 4 3 6 6 4 3 3 3 3 3 4 5 4 4 4 5 3 7 1 4 5 9 9
9 9 10 10 9 8 8 7 6 6 7 7 8 9 10 12 2 2 2 6 5 2 4 4 4 3 3 2 2 4 3 7 5 3 3 6 7 9 5 12 13 10 5 9 12
13 9 9 11 10 10 9 8 7 6 6 6 8 9 11 9 2 4 5 5 5 5 3 1 1 2 3 2 1 2 5 4 5 7 7 14 17 6 14 20 9 14 5 8 6
15 12 9 8 10 9 9 10 8 7 6 5 7 10 12 1 3 2 10 8 5 3 2 4 3 2 2 2 2 3 7 6 5 8 11 16 14 17 18 25 17 16 16 7 12
16 16 12 9 11 10 9 8 8 7 5 5 6 9 4 4 5 6 8 8 5 2 4 3 4 2 2 3 6 5 5 8 11 12 11 14 21 20 29 20 14 19 22 21 14
17 17 15 12 10 10 8 7 7 6 5 4 4 5 2 3 2 6 12 6 3 3 2 3 2 1 0 2 1 3 11 16 15 22 16 22 29 11 30 5 13 15 20 23 18
18 17 17 14 11 10 8 6 7 6 5 5 4 1 1 8 3 11 10 4 4 3 2 2 3 2 3 5 3 6 14 17 19 17 9 9 26 24 32 22 23 24 22 22 29
18 19 19 17 14 12 8 7 6 5 5 5 4 1 5 4 7 7 5 3 3 2 3 3 3 2 2 3 5 6 5 6 6 4 6 7 24 8 9 10 21 24 22 21 25
16 17 19 21 18 14 11 9 7 5 5 4 1 3 7 2 3 6 5 4 4 3 4 2 3 1 2 1 3 4 7 7 8 5 6 9 22 4 10 14 21 22 22 22 23
18 18 18 17 17 16 16 13 3 1 2 3 2 2 3 3 3 6 3 4 1 2 1 3 2 2 4 4 5 6 6 7 14 3 4 12 36 35 25 24 29 27 26 24 25
15 17 19 18 19 13 7 2 3 1 3 7 6 3 2 2 2 3 5 5 2 2 4 4 4 13 15 14 7 5 11 19 27 17 18 21 34 33 30 24 27 29 29 28 29
14 15 17 20 20 13 2 1 1 3 6 8 11 6 3 3 3 4 6 4 5 7 6 3 12 17 10 12 13 17 20 26 25 15 8 18 37 27 33 29 25 29 31 32 30
13 15 18 21 19 3 1 1 2 0 3 5 4 4 5 7 5 7 12 5 6 8 10 12 6 2 4 11 15 20 21 24 23 24 16 25 26 11 17 12 20 24 34 32 32
13 16 19 23 3 4 2 5 5 2 2 3 3 0 3 3 3 5 12 5 4 5 6 11 15 12 7 13 12 16 12 21 21 14 12 5 14 27 12 16 23 23 24 27 34
13 16 18 9 3 3 5 12 5 3 4 1 2 1 2 4 1 3 5 2 7 7 4 8 6 5 7 9 10 12 7 11 18 19 18 17 8 9 8 19 26 20 25 21 23
11 13 12 4 2 3 12 8 3 4 6 1 2 3 2 4 2 5 6 4 3 6 11 20 2 5 7 7 10 9 7 15 17 6 6 9 7 9 5 22 28 13 27 17 17
12 12 7 2 3 10 7 3 4 3 6 6 3 3 4 4 5 7 7 7 5 4 6 4 10 7 6 5 3 3 5 5 4 2 8 5 7 11 11 26 26 24 26 14 16
11 12 1 1 5 3 2 4 3 6 3 1 3 6 6 4 5 6 3 6 12 8 3 3 7 6 6 4 6 7 4 3 7 6 17 11 6 4 15 23 24 23 9 10 15
8 2 1 2 5 2 4 3 7 5 3 4 8 3 2 1 1 3 7 5 5 14 6 3 5 4 7 3 1 4 6 5 9 10 7 3 6 5 19 27 29 27 17 12 12
1 1 2 4 4 4 4 5 4 3 2 1 3 0 2 2 2 1 3 2 1 3 0 2 6 3 7 4 6 3 3 4 3 4 6 4 5 6 20 28 30 31 30 3 13
1 3 2 3 3 4 2 5 5 4 1 3 3 4 3 3 2 2 5 3 2 3 3 4 4 2 3 4 9 6 2 4 5 4 4 7 4 3 13 23 27 29 27 16 4
1 3 2 2 3 1 2 4 5 5 1 4 2 3 4 2 3 4 5 3 4 5 1 1 4 4 8 12 6 4 1 3 3 7 7 7 8 5 17 21 25 22 25 26 8
1 2 2 3 1 2 4 4 4 3 4 3 3 6 2 4 2 4 4 4 3 4 3 2 2 5 7 5 1 2 7 7 10 10 9 8 6 19 25 24 21 19 21 21 23
1 3 2 3 1 1 4 5 4 4 4 3 4 7 2 3 5 4 4 1 2 3 9 2 4 7 9 7 5 10 16 18 7 6 10 12 24 25 24 22 14 17 18 20 17
2 2 1 3 4 2 2 1 4 5 2 3 4 6 5 4 3 5 4 5 5 8 2 4 5 6 11 12 10 14 17 19 17 14 11 22 24 18 18 14 12 11 18 19 21
1 1 1 2 1 3 3 2 5 6 3 4 6 8 4 5 6 10 9 4 8 4 4 2 5 4 6 9 12 16 18 16 17 14 11 10 11 17 18 13 17 17 17 17 20
1 1 0 2 2 1 4 3 4 12 6 7 9 16 18 13 12 12 8 11 7 5 5 4 2 3 9 1 6 10 5 4 3 3 5 7 9 11 13 13 16 15 14 15 14
Wind_Direction
11 6 2 358 350 340 337 334 336 337 337 337 340 336 334 331 326 342 275 190 165 268 326 302 31 356 22 52 25 78 82 218 243 180 251 316 10 316 312 260 313 275 326 299 311
6 6 2 355 346 337 325 322 325 328 330 329 331 330 329 332 300 254 192 140 128 56 51 45 9 356 54 53 35 97 165 225 212 209 263 292 294 298 292 280 280 283 255 318 331
13 8 6 359 349 333 324 315 310 316 319 323 328 328 325 328 236 184 180 163 125 65 82 103 17 40 57 31 359 132 222 204 233 272 299 293 286 268 284 276 216 272 231 284 290
23 19 9 354 352 333 321 310 304 305 311 311 325 334 328 307 249 205 154 145 126 83 68 47 24 55 86 13 332 312 256 266 305 308 295 281 288 275 260 260 272 269 277 250 267
18 19 7 349 351 341 324 307 296 291 298 309 328 346 8 5 253 190 153 130 95 59 61 45 45 56 11 359 332 227 281 273 282 295 282 290 268 266 261 261 262 275 274 268 262
11 10 360 350 345 342 326 307 296 285 281 280 294 344 83 285 154 162 123 120 126 82 49 40 48 45 226 269 233 322 311 302 292 283 283 275 272 266 262 198 247 245 261 271 261
6 2 358 352 344 337 329 319 307 292 274 274 287 305 254 240 194 158 141 161 151 122 98 23 28 61 356 323 302 297 302 294 270 265 254 270 273 236 262 258 252 251 249 251 268
359 356 355 352 343 338 331 322 299 286 275 274 296 74 248 270 209 158 146 141 176 181 157 222 82 115 152 307 302 270 260 291 276 159 240 125 275 327 265 239 243 246 245 244 245
356 355 352 349 343 340 328 312 293 265 244 235 13 136 270 298 196 201 148 162 186 230 227 122 86 181 154 203 290 241 265 259 288 202 200 180 271 301 228 236 249 248 243 236 237
352 346 344 345 341 336 331 314 259 44 276 197 263 24 262 231 185 150 156 124 155 199 168 133 158 216 218 150 240 240 258 258 271 247 227 251 265 272 265 258 255 253 245 237 233
348 340 337 336 336 331 348 4 21 351 253 198 188 241 170 131 102 95 134 114 147 212 215 186 227 232 222 210 231 265 267 271 270 272 274 254 264 273 276 259 261 255 252 243 234
338 337 335 332 330 323 26 23 151 200 296 243 242 243 270 201 136 180 131 158 184 216 220 222 246 245 245 231 235 254 265 269 283 266 231 276 278 283 276 272 262 264 252 245 240
331 334 333 331 327 7 324 21 311 265 273 288 194 189 203 172 228 204 160 171 203 227 220 230 238 276 223 248 234 252 256 265 266 290 277 278 285 260 302 257 263 252 256 250 237
331 336 337 335 15 338 50 324 328 79 9 247 193 309 127 121 256 180 179 163 205 238 233 253 260 263 271 254 216 255 248 250 268 295 305 106 292 311 325 305 285 272 260 259 232
334 338 343 351 303 23 329 329 329 42 348 225 160 339 175 175 359 184 168 156 229 217 178 252 260 246 231 232 166 237 268 272 274 274 289 275 246 278 333 296 308 299 281 276 225
329 335 345 357 6 302 335 334 42 37 270 77 119 176 168 212 241 139 176 236 241 246 232 251 250 248 232 272 198 261 309 278 269 251 247 246 183 284 291 305 312 314 288 263 215
322 325 325 345 308 327 340 42 21 119 345 327 270 180 232 211 208 185 185 195 214 233 213 256 243 236 208 274 170 136 296 304 329 240 241 200 281 259 271 323 320 306 275 228 214
315 330 45 113 318 333 79 65 111 224 231 269 257 259 213 154 241 195 225 242 222 215 274 240 322 175 184 233 276 265 214 249 288 284 294 280 233 262 343 330 333 318 324 216 196
332 345 13 280 331 40 78 78 209 212 225 300 308 238 222 199 255 205 224 243 237 187 214 238 242 302 281 331 255 293 264 272 267 258 273 235 286 308 337 346 350 356 355 216 235
38 305 276 332 5 47 63 257 273 258 301 286 258 356 290 274 327 59 257 229 303 170 93 294 281 252 295 286 294 205 336 305 258 296 291 294 285 317 355 351 351 351 353 35 211
51 343 301 25 65 51 175 242 287 291 261 220 277 297 263 261 222 259 265 314 61 60 34 334 242 270 360 289 332 343 5 330 284 251 292 334 275 25 15 0 353 350 348 354 160
106 302 325 29 36 72 243 214 295 284 212 292 291 251 227 259 273 246 239 243 148 154 248 182 301 275 235 272 210 135 91 20 331 322 288 262 267 137 1 0 348 351 349 353 357
258 269 40 80 239 274 280 272 257 273 246 251 266 224 241 270 279 284 317 327 211 186 195 193 264 304 328 349 103 10 323 304 303 259 266 285 272 332 334 343 347 349 356 355 9
51 321 343 48 36 269 312 277 279 327 261 225 229 268 218 263 212 264 249 343 6 278 314 111 227 227 255 257 285 292 305 293 285 275 290 273 298 313 328 332 353 350 357 351 14
54 269 72 302 319 288 204 269 285 289 279 259 286 247 202 250 251 236 255 329 299 286 276 192 259 240 261 273 278 275 277 282 287 263 270 298 296 334 336 351 353 347 2 1 355
72 328 138 280 251 251 232 270 208 293 277 272 250 274 235 245 217 283 285 247 256 277 202 228 260 251 262 262 267 282 281 278 267 285 276 297 297 357 332 351 13 1 4 3 352
359 7 25 274 210 285 261 236 292 316 257 263 311 307 293 259 255 264 250 264 233 228 225 219 253 311 279 285 296 296 283 293 301 73 316 332 332 331 347 4 5 360 7 360 354